Tracking 22458 objects as of 2-Mar-2021
HD Live streaming from Space Station
objects crossing your sky now

CZ-3C DEB

Track CZ-3C DEB now!


NORAD ID: 40202
Int'l Code: 2012-008M
Perigee: 480.5 km
Apogee: 34,749.4 km
Inclination: 19.8 °
Period: 616.2 minutes
Semi major axis: 23985 km
RCS: Unknown
Launch date: February 24, 2012
Source: People's Republic of China (PRC)
Launch site: Xichang Space Center, China (XSC)

Note: This is SATELLITE DEBRIS
aabbcc
Your satellite tracking list
Your tracking list is empty




NASA's NSSDC Master Catalog

Two Line Element Set (TLE):
1 40202U 12008M   21059.42740505 -.00000057  00000-0  43758-4 0  9997
2 40202  19.7726 218.6931 7143549 290.3196  10.1152  2.33704811 65465
Source of the keplerian elements: AFSPC